Regional Weather Roundup
Issued by NWS

Home | Current Version | Previous Version | Graphics & Text | Print | Product List | Glossary On
Versions: 1 2 3 4 5 6 7 8 9 10 11 12 13 14 15 16 17 18 19 20 21 22 23 24 25 26 27 28 29 30 31 32 33 34 35 36 37 38 39 40 41 42 43 44 45 46 47 48 49 50
000
ASUS45 KABQ 271901
RWRNM
NEW MEXICO REGIONAL WEATHER ROUNDUP
NATIONAL WEATHER SERVICE ALBUQUERQUE NM
100 PM MDT WED JUL 27 2016

NOTE: "FAIR" MEANS FEW OR NO CLOUDS BELOW 12,000 FEET AGL WITH NO
       SIGNIFICANT WEATHER OR OBSTRUCTIONS TO VISION.

      THIS PRODUCT IS RELEASED AS TWO VERSIONS.  ONE VERSION NEAR
      THE TOP OF THE HOUR CONTAINING PRELIMINARY DATA FROM ALBUQUERQUE
      AND OTHER STATIONS.  A FINAL VERSION WITH ADDITIONAL DATA IS
      ISSUED ABOUT 10 MINUTES AFTER THE HOUR.

NMZ501-503-504-510>518-272000-
NORTHWEST PLATEAU/NORTHCENTRAL MOUNTAINS

CITY           SKY/WX    TMP DP  RH WIND       PRES   REMARKS
FARMINGTON     FAIR      90  46  21 VRB6      30.20F
LOS ALAMOS     FAIR      82  38  20 NE12G17   30.34F
SANTA FE       FAIR      87  44  22 VRB5      30.25F
TAOS           FAIR      84  39  20 N5        30.33F
ANGEL FIRE     FAIR      76  41  28 W6        30.42F

$$
NMZ402-403-502-505>509-272000-
WESTCENTRAL MOUNTAINS/SOUTHWEST MOUNTAINS

CITY           SKY/WX    TMP DP  RH WIND       PRES   REMARKS
GALLUP         FAIR      91  36  14 NE8G21    30.29F
GRANTS         FAIR      88  42  19 N5G17     30.30F
SILVER CITY    PTSUNNY   87  54  32 S6        30.18F

$$
NMZ407-409-411-412-272000-
SOUTHERN DESERTS

CITY           SKY/WX    TMP DP  RH WIND       PRES   REMARKS
LORDSBURG      FAIR      88  55  33 CALM      30.11F
DEMING         FAIR      90  61  37 S8        30.11F
LAS CRUCES     PTSUNNY   87  55  33 SE7       30.16F
HOLLOMAN AFB   FAIR      88  59  37 W8        30.10F
ALAMOGORDO     FAIR      86  57  37 NW5       30.13F
T OR C         FAIR      91  54  28 N9        30.15F

$$
NMZ519>523-272000-
CENTRAL VALLEYS/CENTRAL HIGHLANDS

CITY           SKY/WX    TMP DP  RH WIND       PRES   REMARKS
ALBUQUERQUE    FAIR      86  56  35 CALM      30.21F
DOUBLE EAGLE     N/A     86  55  35 VRB6      30.25F
MORIARTY ARPT  PTSUNNY   86  45  23 SE7       30.28F
CLINES CORNERS PTSUNNY   78  50  37 S7        30.34F
BELEN          FAIR      84  51  31 NW3       30.20F
SOCORRO        FAIR      88  51  27 NE6       30.17F

$$
NMZ524>526-539-540-272000-
SOUTHCENTRAL MOUNTAINS

CITY           SKY/WX    TMP DP  RH WIND       PRES   REMARKS
RUIDOSO          N/A     73  54  49 SE10G16   30.36F

$$
NMZ527>531-272000-
NORTHEAST HIGHLANDS/NORTHEAST PLAINS

CITY           SKY/WX    TMP DP  RH WIND       PRES   REMARKS
LAS VEGAS      PTSUNNY   84  44  24 S8        30.30F
RATON          FAIR      85  45  24 SE7       30.25F
CLAYTON        FAIR      88  60  38 S7        30.15F

$$
NMZ532>537-272000-
EASTCENTRAL PLAINS

CITY           SKY/WX    TMP DP  RH WIND       PRES   REMARKS
TUCUMCARI      FAIR      94  51  23 W7        30.08F
CANNON AFB     TSTM      76  63  63 NE14G30   30.16R
CLOVIS AIRPORT FAIR      73  61  64 W13       30.14R THUNDER

$$
NMZ028-029-538-272000-
SOUTHEAST PLAINS

CITY           SKY/WX    TMP DP  RH WIND       PRES   REMARKS
ROSWELL        FAIR      93  58  30 NE6       30.08F
ARTESIA        FAIR      91  61  35 E8G15     30.08F
CARLSBAD       FAIR      92  59  33 MISG      30.05F
HOBBS          MOSUNNY   90  54  29 E9        30.10F


$$




USA.gov is the U.S. government's official web portal to all federal, state and local government web resources and services.